Inquirer Daily News

Weather

Get conditions and forecasts for any City, State, ZIP code or Country:  
Northeast Philadelphia, PA
on Friday, February 15, 2013

Friday
Previous Day Next Day
Daily Summary
 ActualAverage (KTTN)Record (KTTN)
Temperature
Mean Temperature °F 34°F  
Max Temperature 55°F 42°F 73°F (1949)
Min Temperature 28°F 26°F -2°F (1943)
Degree Days
Heating Degree Days 24 31  
Month to date heating degree days 483  
Since 1 July heating degree days 3429  
Cooling Degree Days 0 0  
Month to date cooling degree days 0  
Year to date cooling degree days 0  
Moisture
Dew Point 30°F   
Average Humidity 69    
Maximum Humidity 93    
Minimum Humidity 36    
Precipitation
Precipitation 0.00 in 0.08 in 1.82 in (1876)
Month to date precipitation 1.15  
Year to date precipitation 4.31  
Wind
Wind Speed 3 mph   
Max Wind Speed 13 mph   
Max Gust Speed 18 mph   
Visibility 7 miles   
Events Rain   

Key: T is trace of precipitation, MM is missing value
Source: NWS Daily Summary
Time(EST)TemperatureDew PointHumidity Pressure Visibility Wind DirectionWind SpeedGust SpeedPrecipitationEvents Conditions
12:54 AM 34.0°F 28.9°F 82% 30.04 in 5.0 miles Calm Calm - N/A   Haze
1:54 AM 33.1°F 30.0°F 89% 30.03 in 5.0 miles SSW 3.5 mph - N/A   Scattered Clouds
2:54 AM 34.0°F 30.0°F 85% 30.02 in 6.0 miles Calm Calm - N/A   Clear
3:54 AM 34.0°F 30.0°F 85% 30.01 in 6.0 miles SSW 3.5 mph - N/A   Clear
4:54 AM 33.1°F 28.9°F 85% 30.02 in 6.0 miles Calm Calm - N/A   Scattered Clouds
5:54 AM 30.9°F 27.0°F 85% 30.01 in 5.0 miles Calm Calm - N/A   Clear
6:54 AM 30.0°F 28.0°F 92% 30.02 in 3.0 miles Calm Calm - N/A   Clear
7:01 AM 30.2°F 28.4°F 93% 30.02 in 2.5 miles Calm Calm - N/A   Clear
7:15 AM 28.4°F 24.8°F 86% 30.03 in 1.5 miles Calm Calm - N/A   Clear
7:26 AM 28.4°F 26.6°F 93% 30.03 in 2.5 miles Calm Calm - N/A   Clear
7:41 AM 30.2°F 28.4°F 93% 30.04 in 2.0 miles Calm Calm - N/A   Clear
7:54 AM 32.0°F 30.0°F 92% 30.05 in 3.0 miles Calm Calm - N/A   Clear
8:54 AM 39.9°F 33.1°F 77% 30.04 in 6.0 miles WSW 6.9 mph - N/A   Haze
9:54 AM 44.1°F 33.1°F 65% 30.04 in 8.0 miles WSW 5.8 mph - N/A   Clear
10:54 AM 48.0°F 34.0°F 58% 30.04 in 9.0 miles Calm Calm - N/A   Clear
11:54 AM 48.2°F 35.6°F 62% 30.01 in 8.0 miles SSE 6.9 mph - N/A   Clear
12:54 PM 52.0°F 34.0°F 50% 29.99 in 10.0 miles SSW 5.8 mph - N/A   Clear
1:54 PM 55.0°F 33.1°F 43% 29.96 in 10.0 miles SSW 8.1 mph - N/A   Clear
2:54 PM 55.9°F 30.0°F 37% 29.94 in 10.0 miles WSW 10.4 mph 18.4 mph N/A   Clear
3:54 PM 55.9°F 28.9°F 36% 29.94 in 10.0 miles SW 11.5 mph - N/A   Scattered Clouds
4:54 PM 54.0°F 30.0°F 40% 29.94 in 10.0 miles SW 6.9 mph - N/A   Mostly Cloudy
5:54 PM 51.1°F 30.0°F 44% 29.94 in 10.0 miles SW 5.8 mph - N/A   Partly Cloudy
6:54 PM 46.0°F 30.9°F 56% 29.94 in 10.0 miles Calm Calm - N/A   Scattered Clouds
7:54 PM 46.9°F 28.9°F 50% 29.95 in 10.0 miles NNW 3.5 mph - N/A   Overcast
8:54 PM 46.0°F 28.9°F 51% 29.96 in 10.0 miles NNW 4.6 mph - N/A   Overcast
9:54 PM 46.0°F 25.0°F 44% 29.98 in 10.0 miles NW 12.7 mph - N/A   Overcast
10:54 PM 41.0°F 32.0°F 70% 30.00 in 10.0 miles NNW 12.7 mph - N/A   Overcast
11:54 PM 37.9°F 34.0°F 86% 30.00 in 10.0 miles NNW 12.7 mph - 0.00 in Rain Light Rain
Astronomy
Sunrise:06:52 AM (EST) Moon Rise:09:27 AM (EST)2/15
Sunset:05:36 PM (EST) Moon Set:11:34 PM (EST)2/15
Moon Phase
Feb. 15 Feb. 17 Feb. 25 Mar. 04 Mar. 11

Copyright © 2014 The Weather Underground, Inc.